Regional Weather Roundup
Issued by NWS

Home | Current Version | Previous Version | Graphics & Text | Print | Product List | Glossary On
Versions: 1 2 3 4 5 6 7 8 9 10 11 12 13 14 15 16 17 18 19 20 21 22 23 24 25 26 27 28 29 30 31 32 33 34 35 36 37 38 39 40 41 42 43 44 45 46 47 48 49 50
000
ASUS45 KCYS 030910
RWRWY

WYOMING REGIONAL WEATHER ROUNDUP
NATIONAL WEATHER SERVICE CHEYENNE WY
300 AM MDT FRI JUL 03 2015

NOTE:  "FAIR" INDICATES FEW OR NO CLOUDS BELOW 12,000 FEET
WITH NO SIGNIFICANT WEATHER AND/OR OBSTRUCTIONS TO VISIBILITY.

WYZ001-031000-
YELLOWSTONE NATIONAL PARK

CITY           SKY/WX    TMP DP  RH WIND       PRES   REMARKS
LK YELLOWSTONE   N/A     45  39  79 CALM      30.34F
W YELLOWSTONE  NOT AVBL

$$
WYZ002>013-054>058-071-098>099-031000-
NORTHERN WYOMING

CITY           SKY/WX    TMP DP  RH WIND       PRES   REMARKS
JACKSON        FAIR      54  45  71 NE5       30.22S
CODY           FAIR      63  48  59 S5        30.16S
GREYBULL       FAIR      68  50  52 SW5       30.08R
WORLAND        FAIR      62  55  77 CALM      30.09F
SHERIDAN       FAIR      55  50  83 CALM      30.09F
BUFFALO        FAIR      58  51  78 SW5       30.16S
GILLETTE       FAIR      57  52  83 S9        30.13F
HULETT         FAIR      55  52  88 S6        30.13F
NEWCASTLE      PTSUNNY   61  54  77 MISG      30.15S

$$
WYZ014>020-022>026-101>103-031000-
CENTRAL WYOMING

CITY           SKY/WX    TMP DP  RH WIND       PRES   REMARKS
BIG PINEY      FAIR      53  40  61 NW6       30.29S
PINEDALE       FAIR      50  39  66 W6        30.29S
DUBOIS         FAIR      54  48  82 CALM      30.31F
LANDER         FAIR      62  53  72 W12       30.20F
RIVERTON       FAIR      65  53  65 NE8       30.19S
CASPER         FAIR      61  52  72 SE5       30.18F
DOUGLAS        FAIR      59  57  93 CALM      30.19S

$$
WYZ021-027>030-104>119-031000-
SOUTHERN WYOMING

CITY           SKY/WX    TMP DP  RH WIND       PRES   REMARKS
EVANSTON       FAIR      62  42  47 E7        30.25F
KEMMERER       FAIR      59  45  58 N13       30.28F
FORT BRIDGER   SUNNY     61  39  44 CALM      30.28S
ROCK SPRINGS   FAIR      59  50  72 NE8       30.25S
DIXON          FAIR      56  47  72 NE5       30.25R
RAWLINS        FAIR      56  53  90 NE6       30.26S
SARATOGA       FAIR      48  46  93 CALM      30.28S
LARAMIE        FAIR      52  48  86 S6        30.28F
CHEYENNE       FAIR      59  54  83 W7        30.22F
TORRINGTON     FAIR      62  59  90 NE5       30.13F
PINE BLUFFS    PTSUNNY   59  55  88 CALM      30.18S

$$



USA.gov is the U.S. government's official web portal to all federal, state and local government web resources and services.